Погода в Карабалыке

Казахстан     53°45′08″N   62°03′17″E
темп.,
°C
ветер,
м/с
пор.,
м/с
влажн.,
%
обл.,
%
осадки,
мм/ч
давл.,
гПа
погр.,
м
2 марта, вт
вт200:00−16юз129690 0.1 101820
03:00−18юз229967 0.0 101720
06:00−19ююз229870 0.0 101620
09:00−19ююз239988 0.0 101520
12:00−15ююз359689 0.1 1014175
15:00−12ююз469379 0.0 1012283
18:00−12ююз599286 0.0 1011316
21:00−14ююз6119163 0.0 1009215
3 марта, ср
ср300:00−11юз7148976 0.0 1009420
03:00−11юз81686100 0.0 1007553
06:00−10юз8159399 0.3 1007600
09:00−7юз81493100 0.9 1005712
12:00−5юз81491100 1.4 1004759
15:00−3юз81389100 0.1 1003863
18:00−2юз71294100 0.5 1003807
21:00−2юз71393100 0.4 1002638
4 марта, чт
чт400:00−2ююз61292100 0.5 1002472
03:00−2юз51195100 0.1 1001441
06:00−3зюз4896100 0.4 1001307
09:00−6зюз3792100 0.1 1001176
12:00−7з598798 0.1 1002338
15:00−5з598526 0.0 1003539
18:00−6зюз4108433 0.0 1005258
21:00−9зюз512829 0.0 1007213
5 марта, пт
пт500:00−10юз613854 0.0 1009312
03:00−9юз8158666 0.0 1008501
06:00−7юз9178480 0.0 1006719
09:00−4юз101786100 0.0 1004871
12:00−2юз112080100 0.1 10041115
15:000юз111979100 0.0 10041243
18:000юз111884100 0.0 10051168
21:00−1юз91783100 0.0 1006835
6 марта, сб
сб600:00−3юз7168584 0.0 1008543
03:00−3зюз489394 0.1 1009215
06:00−9зсз349079 0.1 101241
09:00−13зсз338734 0.0 101426
12:00−10зюз238641 0.0 101593
15:00−7ююз2485100 0.0 1015236
18:00−6ююв478993 0.0 1012239
21:00−1ю81596100 0.4 1008788